| time (UTC) | temp F | wind direction | speed knots | gust knots | rain 1hr in | rain 24hr in | rain mn in | humidity % | barometer mb |
| 20260505083105 | 55 | 121 | 0.9 | 6.1 | 0.00 | 0.00 | 0.00 | 66 | 1009.3 |
| 20260505081556 | 55 | 143 | 0.9 | 6.1 | 0.00 | 0.00 | 0.00 | 66 | 1009.3 |
| 20260505080055 | 56 | 119 | 0.9 | 7.0 | 0.00 | 0.00 | 0.00 | 65 | 1009.2 |
| 20260505074549 | 56 | 173 | 1.7 | 7.0 | 0.00 | 0.00 | 0.00 | 64 | 1009.2 |
| 20260505073052 | 57 | 129 | 1.7 | 7.0 | 0.00 | 0.00 | 0.00 | 62 | 1009.2 |
| 20260505071554 | 57 | 155 | 2.6 | 7.0 | 0.00 | 0.00 | 0.00 | 61 | 1009.4 |
| 20260505070053 | 57 | 132 | 1.7 | 8.7 | 0.00 | 0.00 | 0.00 | 61 | 1009.3 |
| 20260505064620 | 57 | 155 | 1.7 | 8.7 | 0.00 | 0.00 | 0.00 | 60 | 1009.3 |
| 20260505063053 | 57 | 140 | 1.7 | 7.0 | 0.00 | 0.00 | 0.00 | 58 | 1009.3 |
| 20260505061551 | 58 | 139 | 1.7 | 7.8 | 0.00 | 0.00 | 0.00 | 57 | 1009.4 |
| 20260505060049 | 58 | 167 | 1.7 | 7.0 | 0.00 | 0.00 | 0.00 | 56 | 1009.5 |
| 20260505054551 | 59 | 161 | 2.6 | 10.4 | 0.00 | 0.00 | 0.00 | 55 | 1009.6 |
| 20260505053052 | 59 | 169 | 1.7 | 9.6 | 0.00 | 0.00 | 0.00 | 54 | 1009.4 |
| 20260505051549 | 59 | 204 | 3.5 | 9.6 | 0.00 | 0.00 | 0.00 | 54 | 1009.6 |
| 20260505041548 | 58 | 194 | 2.6 | 7.8 | 0.00 | 0.00 | 0.00 | 56 | 1009.8 |
| 20260505040059 | 58 | 0 | 1.7 | 7.0 | 0.00 | 0.00 | 0.00 | 57 | 1009.7 |
| 20260505034604 | 58 | 212 | 0.9 | 5.2 | 0.00 | 0.00 | 0.00 | 57 | 1009.9 |
| 20260505033054 | 58 | 178 | 0.9 | 6.1 | 0.00 | 0.00 | 0.00 | 56 | 1009.8 |
| 20260505031547 | 58 | 156 | 1.7 | 6.1 | 0.00 | 0.00 | 0.00 | 56 | 1009.7 |
| 20260505030057 | 58 | 139 | 2.6 | 6.1 | 0.00 | 0.00 | 0.00 | 57 | 1009.8 |
| 20260505024606 | 59 | 107 | 1.7 | 7.8 | 0.00 | 0.00 | 0.00 | 56 | 1009.8 |
| 20260505023052 | 59 | 256 | 0.9 | 7.0 | 0.00 | 0.00 | 0.00 | 54 | 1009.8 |
| 20260505021552 | 59 | 134 | 0.9 | 8.7 | 0.00 | 0.00 | 0.00 | 55 | 1009.9 |
| 20260505014550 | 59 | 136 | 0.9 | 6.1 | 0.00 | 0.00 | 0.00 | 54 | 1009.8 |
| 20260505013053 | 60 | 0 | 1.7 | 4.3 | 0.00 | 0.00 | 0.00 | 53 | 1009.6 |
| 20260505011557 | 60 | 0 | 0.0 | 4.3 | 0.00 | 0.00 | 0.00 | 52 | 1009.4 |
| 20260505010108 | 61 | 101 | 2.6 | 7.0 | 0.00 | 0.00 | 0.00 | 52 | 1009.3 |
| 20260505004601 | 61 | 221 | 1.7 | 5.2 | 0.00 | 0.00 | 0.00 | 51 | 1009.1 |
| 20260505003051 | 62 | 0 | 1.7 | 7.8 | 0.00 | 0.00 | 0.00 | 48 | 1008.8 |
| 20260505001549 | 63 | 148 | 2.6 | 8.7 | 0.00 | 0.00 | 0.00 | 46 | 1008.5 |
| 20260505000100 | 64 | 0 | 0.0 | 3.5 | 0.00 | 0.00 | 0.00 | 42 | 1008.1 |
| 20260504234547 | 65 | 0 | 0.0 | 3.5 | 0.00 | 0.00 | 0.00 | 41 | 1007.9 |
| 20260504233048 | 67 | 229 | 3.5 | 8.7 | 0.00 | 0.00 | 0.00 | 38 | 1007.7 |
| 20260504231618 | 68 | 219 | 2.6 | 9.6 | 0.00 | 0.00 | 0.00 | 35 | 1007.6 |
| 20260504230051 | 68 | 239 | 6.1 | 11.3 | 0.00 | 0.00 | 0.00 | 35 | 1007.4 |
| 20260504224549 | 69 | 221 | 7.0 | 13.9 | 0.00 | 0.00 | 0.00 | 34 | 1007.3 |
| 20260504223051 | 69 | 241 | 5.2 | 13.9 | 0.00 | 0.00 | 0.00 | 33 | 1007.4 |
| 20260504221641 | 70 | 281 | 3.5 | 16.5 | 0.00 | 0.00 | 0.00 | 32 | 1007.4 |
| 20260504220052 | 70 | 196 | 6.1 | 16.5 | 0.00 | 0.00 | 0.00 | 34 | 1007.6 |
| 20260504214550 | 70 | 240 | 7.8 | 14.8 | 0.00 | 0.00 | 0.00 | 32 | 1007.7 |
| 20260504213054 | 71 | 256 | 7.8 | 13.0 | 0.00 | 0.00 | 0.00 | 32 | 1007.9 |
| 20260504211549 | 71 | 239 | 7.0 | 13.9 | 0.00 | 0.00 | 0.00 | 31 | 1007.9 |
| 20260504210050 | 71 | 257 | 3.5 | 9.6 | 0.00 | 0.00 | 0.00 | 32 | 1008.0 |
| 20260504204549 | 71 | 238 | 6.1 | 11.3 | 0.00 | 0.00 | 0.00 | 31 | 1008.1 |
| 20260504203046 | 71 | 193 | 7.0 | 17.4 | 0.00 | 0.00 | 0.00 | 31 | 1008.0 |
| 20260504201550 | 71 | 264 | 6.1 | 13.9 | 0.00 | 0.00 | 0.00 | 33 | 1008.1 |
| 20260504200049 | 70 | 248 | 5.2 | 18.2 | 0.00 | 0.00 | 0.00 | 32 | 1008.3 |
| 20260504194551 | 69 | 235 | 4.3 | 13.9 | 0.00 | 0.00 | 0.00 | 33 | 1008.4 |
| 20260504193055 | 67 | 192 | 5.2 | 13.9 | 0.00 | 0.00 | 0.00 | 32 | 1008.5 |
| 20260504191610 | 68 | 250 | 5.2 | 18.2 | 0.00 | 0.00 | 0.00 | 34 | 1008.6 |
| 20260504190050 | 69 | 208 | 6.1 | 13.9 | 0.00 | 0.00 | 0.00 | 32 | 1008.7 |
| 20260504184601 | 68 | 232 | 8.7 | 17.4 | 0.00 | 0.00 | 0.00 | 34 | 1008.9 |
| 20260504183047 | 68 | 223 | 8.7 | 15.6 | 0.00 | 0.00 | 0.00 | 32 | 1009.0 |
| 20260504181548 | 68 | 212 | 5.2 | 14.8 | 0.00 | 0.00 | 0.00 | 34 | 1009.0 |
| 20260504180051 | 67 | 273 | 7.0 | 14.8 | 0.00 | 0.00 | 0.00 | 35 | 1009.3 |
| 20260504174549 | 67 | 155 | 7.0 | 17.4 | 0.00 | 0.00 | 0.00 | 36 | 1009.6 |
| 20260504173051 | 66 | 254 | 7.8 | 15.6 | 0.00 | 0.00 | 0.00 | 36 | 1009.6 |
| 20260504171546 | 65 | 247 | 8.7 | 18.2 | 0.00 | 0.00 | 0.00 | 35 | 1009.8 |